When you browse on this site, cookies collect data to enhance your experience and personalize the content and advertising you see.
Visit our Privacy Policy to learn more. By continuing to use the site, you agree to this use of cookies and data.
  • Em Portugal
  • Lista de países
  • Para 7 dias
  • Temperatura da água
  • Mapa do tempo
  • Widgets de tempo
  • user-avatar
    Iniciar Sessão

    Previsão horária em Terekli-Mekteb

    Hoje, 23 Setembro, Segunda-feira

    Tempo Temperatura Precipitação Vento Pressão Humidade
    00:00 +14°C° 0 mm 4 m/s 762 mmHg 43%
    01:00 +14°C° 0 mm 4 m/s 762 mmHg 45%
    02:00 +14°C° 0 mm 4 m/s 762 mmHg 47%
    03:00 +13°C° 0 mm 4 m/s 762 mmHg 51%
    04:00 +13°C° 0 mm 4 m/s 762 mmHg 52%
    05:00 +13°C° 0 mm 4 m/s 761 mmHg 52%
    06:00 +13°C° 0 mm 4 m/s 761 mmHg 52%
    07:00 +15°C° 0 mm 4 m/s 761 mmHg 47%
    08:00 +17°C° 0 mm 5 m/s 761 mmHg 42%
    09:00 +20°C° 0 mm 5 m/s 762 mmHg 37%
    10:00 +21°C° 0 mm 5 m/s 761 mmHg 35%
    11:00 +22°C° 0 mm 6 m/s 761 mmHg 34%
    12:00 +23°C° 0 mm 6 m/s 760 mmHg 32%
    13:00 +23°C° 0 mm 5 m/s 760 mmHg 31%
    14:00 +25°C° 0 mm 5 m/s 760 mmHg 30%
    15:00 +25°C° 0 mm 5 m/s 759 mmHg 28%
    16:00 +23°C° 0 mm 4 m/s 759 mmHg 31%
    17:00 +22°C° 0 mm 3 m/s 760 mmHg 33%
    18:00 +21°C° 0 mm 2 m/s 760 mmHg 35%
    19:00 +21°C° 0 mm 2 m/s 760 mmHg 38%
    20:00 +21°C° 0 mm 1 m/s 761 mmHg 41%
    21:00 +20°C° 0 mm 1 m/s 761 mmHg 43%
    22:00 +19°C° 0 mm 1 m/s 761 mmHg 44%
    23:00 +19°C° 0 mm 1 m/s 760 mmHg 44%

    Amanhã, 24 Setembro, Terça-feira

    Tempo Temperatura Precipitação Vento Pressão Humidade
    00:00 +19°C° 0 mm 1 m/s 760 mmHg 45%
    01:00 +17°C° 0 mm 2 m/s 760 mmHg 49%
    02:00 +16°C° 0 mm 2 m/s 760 mmHg 53%
    03:00 +16°C° 0 mm 2 m/s 761 mmHg 57%
    04:00 +15°C° 0 mm 2 m/s 761 mmHg 63%
    05:00 +15°C° 0 mm 2 m/s 761 mmHg 70%
    06:00 +13°C° 0 mm 3 m/s 761 mmHg 76%
    07:00 +16°C° 0 mm 2 m/s 761 mmHg 68%
    08:00 +18°C° 0 mm 2 m/s 761 mmHg 60%
    09:00 +20°C° 0 mm 2 m/s 761 mmHg 51%
    10:00 +21°C° 0 mm 2 m/s 760 mmHg 45%
    11:00 +23°C° 0 mm 2 m/s 760 mmHg 39%
    12:00 +25°C° 0 mm 2 m/s 760 mmHg 33%
    13:00 +25°C° 0 mm 2 m/s 759 mmHg 31%
    14:00 +26°C° 0 mm 2 m/s 759 mmHg 29%
    15:00 +26°C° 0 mm 3 m/s 759 mmHg 28%
    16:00 +25°C° 0 mm 4 m/s 759 mmHg 36%
    17:00 +22°C° 0 mm 5 m/s 759 mmHg 44%
    18:00 +21°C° 0 mm 6 m/s 759 mmHg 52%
    19:00 +20°C° 0 mm 6 m/s 759 mmHg 59%
    20:00 +19°C° 0 mm 5 m/s 760 mmHg 65%
    21:00 +19°C° 0 mm 5 m/s 760 mmHg 71%
    22:00 +18°C° 0 mm 4 m/s 759 mmHg 75%
    23:00 +18°C° 0 mm 4 m/s 759 mmHg 80%

    Depois de amanhã, 25 Setembro, Quarta-feira

    Tempo Temperatura Precipitação Vento Pressão Humidade
    00:00 +17°C° 0 mm 4 m/s 759 mmHg 84%
    01:00 +17°C° 0 mm 4 m/s 759 mmHg 85%
    02:00 +17°C° 0 mm 3 m/s 759 mmHg 86%
    03:00 +17°C° 0 mm 3 m/s 759 mmHg 87%
    04:00 +17°C° 0 mm 3 m/s 759 mmHg 87%
    05:00 +16°C° 0 mm 2 m/s 759 mmHg 86%
    06:00 +16°C° 0 mm 2 m/s 759 mmHg 86%
    07:00 +18°C° 0 mm 2 m/s 760 mmHg 78%
    08:00 +19°C° 0 mm 2 m/s 760 mmHg 70%
    09:00 +20°C° 0 mm 3 m/s 760 mmHg 62%
    10:00 +21°C° 0 mm 3 m/s 760 mmHg 56%
    11:00 +23°C° 0 mm 2 m/s 760 mmHg 50%
    12:00 +24°C° 0 mm 2 m/s 760 mmHg 45%
    13:00 +24°C° 0 mm 3 m/s 760 mmHg 45%
    14:00 +23°C° 0 mm 4 m/s 760 mmHg 44%
    15:00 +25°C° 0 mm 5 m/s 760 mmHg 44%
    16:00 +22°C° 0 mm 6 m/s 760 mmHg 51%
    17:00 +21°C° 0 mm 7 m/s 761 mmHg 58%
    18:00 +20°C° 0 mm 8 m/s 761 mmHg 65%
    19:00 +18°C° 0 mm 7 m/s 761 mmHg 69%
    20:00 +17°C° 0 mm 7 m/s 761 mmHg 72%
    21:00 +17°C° 0 mm 7 m/s 761 mmHg 76%
    22:00 +16°C° 0 mm 7 m/s 761 mmHg 78%
    23:00 +16°C° 0 mm 6 m/s 761 mmHg 80%

    26 Setembro, Quinta-feira

    Tempo Temperatura Precipitação Vento Pressão Humidade
    00:00 +16°C° 0 mm 6 m/s 760 mmHg 82%
    01:00 +16°C° 0 mm 6 m/s 760 mmHg 82%
    02:00 +16°C° 0 mm 6 m/s 760 mmHg 82%
    03:00 +16°C° 0 mm 6 m/s 760 mmHg 82%
    04:00 +16°C° 0 mm 5 m/s 760 mmHg 82%
    05:00 +16°C° 0 mm 5 m/s 760 mmHg 82%
    06:00 +17°C° 0 mm 4 m/s 760 mmHg 82%
    07:00 +17°C° 0 mm 5 m/s 760 mmHg 76%
    08:00 +19°C° 0 mm 6 m/s 760 mmHg 70%
    09:00 +20°C° 0 mm 6 m/s 760 mmHg 63%
    10:00 +21°C° 0 mm 6 m/s 760 mmHg 58%
    11:00 +22°C° 0 mm 6 m/s 760 mmHg 52%
    12:00 +24°C° 0 mm 6 m/s 760 mmHg 46%
    13:00 +23°C° 0 mm 6 m/s 760 mmHg 46%
    14:00 +23°C° 0 mm 6 m/s 760 mmHg 46%
    15:00 +23°C° 0 mm 7 m/s 760 mmHg 46%
    16:00 +22°C° 0 mm 7 m/s 760 mmHg 50%
    17:00 +21°C° 0 mm 7 m/s 760 mmHg 54%
    18:00 +20°C° 0 mm 7 m/s 760 mmHg 57%
    19:00 +18°C° 0 mm 7 m/s 760 mmHg 59%
    20:00 +18°C° 0 mm 7 m/s 760 mmHg 60%
    21:00 +19°C° 0 mm 6 m/s 760 mmHg 62%
    22:00 +17°C° 0 mm 6 m/s 760 mmHg 65%
    23:00 +17°C° 0 mm 6 m/s 760 mmHg 69%

    27 Setembro, Sexta-feira

    Tempo Temperatura Precipitação Vento Pressão Humidade
    00:00 +16°C° 0 mm 5 m/s 760 mmHg 72%
    01:00 +16°C° 0 mm 5 m/s 760 mmHg 72%
    02:00 +16°C° 0 mm 6 m/s 759 mmHg 73%
    03:00 +16°C° 0 mm 6 m/s 759 mmHg 73%
    04:00 +16°C° 0 mm 6 m/s 759 mmHg 72%
    05:00 +16°C° 0 mm 6 m/s 759 mmHg 72%
    06:00 +16°C° 0 mm 6 m/s 759 mmHg 71%
    07:00 +17°C° 0 mm 6 m/s 759 mmHg 65%
    08:00 +18°C° 0 mm 7 m/s 759 mmHg 59%
    09:00 +21°C° 0 mm 7 m/s 759 mmHg 52%
    10:00 +22°C° 0 mm 7 m/s 759 mmHg 48%
    11:00 +23°C° 0 mm 7 m/s 759 mmHg 43%
    12:00 +26°C° 0 mm 7 m/s 759 mmHg 38%
    13:00 +26°C° 0 mm 7 m/s 758 mmHg 38%
    14:00 +26°C° 0 mm 7 m/s 758 mmHg 38%
    15:00 +26°C° 0 mm 7 m/s 758 mmHg 37%
    16:00 +23°C° 0 mm 7 m/s 758 mmHg 42%
    17:00 +22°C° 0 mm 7 m/s 758 mmHg 46%
    18:00 +20°C° 0 mm 7 m/s 758 mmHg 51%
    19:00 +20°C° 0 mm 6 m/s 758 mmHg 53%
    20:00 +19°C° 0 mm 6 m/s 758 mmHg 55%
    21:00 +19°C° 0 mm 6 m/s 758 mmHg 57%
    22:00 +19°C° 0 mm 5 m/s 758 mmHg 56%
    23:00 +19°C° 0 mm 5 m/s 758 mmHg 56%

    28 Setembro, Sábado

    Tempo Temperatura Precipitação Vento Pressão Humidade
    00:00 +19°C° 0 mm 5 m/s 758 mmHg 55%
    01:00 +19°C° 0 mm 5 m/s 758 mmHg 54%
    02:00 +19°C° 0 mm 5 m/s 757 mmHg 54%
    03:00 +19°C° 0 mm 5 m/s 757 mmHg 53%
    04:00 +19°C° 0 mm 5 m/s 757 mmHg 54%
    05:00 +19°C° 0 mm 4 m/s 757 mmHg 54%
    06:00 +19°C° 0 mm 4 m/s 757 mmHg 54%
    07:00 +19°C° 0.1 mm 4 m/s 757 mmHg 55%
    08:00 +19°C° 0.1 mm 5 m/s 757 mmHg 56%
    09:00 +19°C° 0.1 mm 5 m/s 758 mmHg 57%
    10:00 +17°C° 1.8 mm 5 m/s 758 mmHg 65%
    11:00 +15°C° 1.8 mm 5 m/s 759 mmHg 74%
    12:00 +14°C° 1.8 mm 6 m/s 760 mmHg 82%
    13:00 +14°C° 0.3 mm 5 m/s 760 mmHg 81%
    14:00 +14°C° 0.3 mm 4 m/s 760 mmHg 80%
    15:00 +14°C° 0.3 mm 4 m/s 760 mmHg 79%
    16:00 +14°C° 0.2 mm 4 m/s 760 mmHg 81%
    17:00 +14°C° 0.2 mm 4 m/s 761 mmHg 82%
    18:00 +14°C° 0.2 mm 3 m/s 762 mmHg 84%
    19:00 +14°C° 0.6 mm 4 m/s 762 mmHg 85%
    20:00 +13°C° 0.6 mm 5 m/s 763 mmHg 86%
    21:00 +13°C° 0.6 mm 5 m/s 763 mmHg 86%
    22:00 +13°C° 0 mm 5 m/s 763 mmHg 85%
    23:00 +13°C° 0 mm 4 m/s 763 mmHg 85%
    Mostrar mais